EW0603 Weather Reports


Display with metric or nautical units.
time (UTC)temp
F
wind
direction
speed
MPH
gust
MPH
rain 1hr
in
rain 24hr
in
rain mn
in
humidity
%
barometer
mb
20260505011405 64 240 1.0 8.0 0.00 0.24 0.24 70 997.9
20260505011303 64 215 1.0 8.0 0.00 0.24 0.24 70 997.9
20260505011158 64 200 1.0 8.0 0.00 0.24 0.24 71 997.9
20260505011053 64 212 1.0 8.0 0.00 0.24 0.24 71 997.9
20260505010946 64 238 1.0 8.0 0.00 0.24 0.24 70 997.9
20260505010840 64 229 1.0 7.0 0.00 0.24 0.24 71 997.9
20260505010733 64 240 0.0 3.0 0.00 0.24 0.24 72 997.9
20260505010626 64 215 0.0 10.0 0.00 0.24 0.24 72 997.9
20260505010524 64 215 0.0 10.0 0.00 0.24 0.24 72 997.8
20260505010417 64 228 1.0 10.0 0.00 0.24 0.24 73 997.8
20260505010309 64 219 1.0 10.0 0.00 0.24 0.24 73 997.8
20260505010202 63 220 1.0 10.0 0.00 0.24 0.24 73 997.9
20260505010059 63 208 1.0 10.0 0.00 0.24 0.24 73 997.9
20260505005954 63 245 1.0 10.0 0.00 0.24 0.24 74 997.8
20260505005851 63 238 1.0 10.0 0.00 0.24 0.24 74 997.9
20260505005527 63 233 1.0 10.0 0.00 0.24 0.24 75 997.8
20260505005423 63 196 0.0 10.0 0.00 0.24 0.24 76 997.8
20260505005321 62 241 0.0 10.0 0.00 0.24 0.24 77 997.7
20260505005219 62 209 0.0 10.0 0.00 0.24 0.24 77 997.7
20260505004854 62 168 0.0 5.0 0.00 0.24 0.24 79 997.8
20260505004748 62 196 0.0 5.0 0.00 0.24 0.24 79 997.7
20260505004644 62 189 0.0 0.0 0.00 0.24 0.24 79 997.8
20260505004542 62 182 0.0 0.0 0.00 0.24 0.24 80 997.8
20260505004434 62 181 0.0 0.0 0.00 0.24 0.24 80 997.8
20260505004109 62 199 0.0 0.0 0.00 0.24 0.24 80 997.7
20260505004003 62 199 0.0 0.0 0.00 0.24 0.24 80 997.7
20260505003642 62 197 0.0 0.0 0.00 0.24 0.24 80 997.6
20260505003533 62 207 0.0 0.0 0.00 0.24 0.24 80 997.6
20260505003428 62 207 0.0 0.0 0.00 0.24 0.24 80 997.6
20260505003322 62 207 0.0 0.0 0.00 0.24 0.24 80 997.6
20260505003216 62 207 0.0 0.0 0.00 0.24 0.24 80 997.6
20260505003109 62 207 0.0 0.0 0.00 0.24 0.24 80 997.6
20260505003005 62 207 0.0 0.0 0.00 0.24 0.24 80 997.5
20260505002858 62 219 0.0 0.0 0.00 0.24 0.24 80 997.5
20260505002754 62 219 0.0 0.0 0.00 0.24 0.24 80 997.5
20260505002647 62 242 0.0 0.0 0.00 0.24 0.24 80 997.5
20260505002544 62 242 0.0 0.0 0.00 0.24 0.24 80 997.5
20260505002437 62 242 0.0 0.0 0.00 0.24 0.24 80 997.5
20260505002333 62 243 0.0 0.0 0.00 0.24 0.24 81 997.4
20260505002226 62 243 0.0 0.0 0.00 0.24 0.24 81 997.5
20260505002123 62 243 0.0 0.0 0.00 0.24 0.24 81 997.5
20260505002018 62 243 0.0 0.0 0.00 0.24 0.24 80 997.5
20260505001915 62 243 0.0 0.0 0.00 0.24 0.24 80 997.4
20260505001813 62 183 0.0 0.0 0.00 0.24 0.24 81 997.4
20260505001708 62 183 0.0 0.0 0.00 0.24 0.24 81 997.4
20260505001239 62 183 0.0 0.0 0.00 0.24 0.24 80 997.3
20260505001133 62 183 0.0 0.0 0.00 0.24 0.24 81 997.3
20260505001026 62 183 0.0 0.0 0.00 0.24 0.24 81 997.2
20260505000700 63 173 0.0 0.0 0.00 0.24 0.24 81 997.2
20260505000338 63 170 0.0 0.0 0.00 0.24 0.24 80 997.2
20260505000235 63 170 0.0 0.0 0.00 0.24 0.24 80 997.2
20260505000131 62 158 0.0 1.0 0.00 0.24 0.24 80 997.1
20260505000029 62 194 0.0 1.0 0.00 0.24 0.24 80 997.2
20260504235923 62 220 0.0 0.0 0.00 0.24 0.24 81 997.2
20260504235819 62 230 0.0 6.0 0.00 0.24 0.24 80 997.2
20260504235713 62 236 0.0 6.0 0.00 0.24 0.24 80 997.2
20260504235610 62 190 0.0 6.0 0.00 0.24 0.24 80 997.2
20260504235245 62 232 0.0 5.0 0.00 0.24 0.24 82 997.3
20260504235137 62 202 0.0 0.0 0.00 0.24 0.24 82 997.3
20260504235035 62 192 0.0 1.0 0.00 0.24 0.24 82 997.3
20260504234930 62 201 0.0 1.0 0.04 0.24 0.24 82 997.4
20260504234605 61 246 1.0 2.0 0.05 0.24 0.24 82 997.4
20260504234459 61 209 1.0 7.0 0.05 0.24 0.24 83 997.6
20260504234356 61 184 1.0 7.0 0.06 0.24 0.24 83 997.6
20260504234249 61 178 1.0 7.0 0.06 0.24 0.24 83 997.6
20260504233925 61 273 1.0 7.0 0.10 0.24 0.24 85 997.7
20260504233820 61 288 1.0 7.0 0.10 0.24 0.24 85 997.6
20260504233718 60 280 1.0 4.0 0.10 0.24 0.24 85 997.7
20260504233136 60 239 2.0 8.0 0.09 0.23 0.23 86 998.0
20260504233029 60 240 2.0 8.0 0.09 0.23 0.23 86 997.9
20260504232926 60 239 2.0 8.0 0.09 0.21 0.23 87 997.8
20260504232822 60 272 1.0 8.0 0.09 0.21 0.23 87 997.7
20260504232718 60 237 1.0 8.0 0.00 0.21 0.21 87 997.7
20260504232614 59 257 1.0 8.0 0.00 0.21 0.21 87 997.8
20260504232508 59 291 0.0 6.0 0.00 0.21 0.21 87 998.2
20260504232404 59 296 0.0 5.0 0.00 0.21 0.21 87 998.2
20260504232301 59 281 0.0 3.0 0.00 0.21 0.21 87 998.1
20260504232158 59 253 0.0 0.0 0.00 0.21 0.21 87 998.1
20260504232054 59 253 0.0 0.0 0.00 0.21 0.21 87 998.1
20260504231946 59 252 0.0 0.0 0.00 0.21 0.21 87 998.1
20260504231841 59 252 0.0 0.0 0.00 0.21 0.21 87 998.2
20260504231737 59 253 0.0 0.0 0.00 0.21 0.21 87 998.1
20260504231634 59 253 0.0 5.0 0.00 0.21 0.21 87 998.1
20260504231527 59 277 0.0 3.0 0.00 0.21 0.21 86 998.2
20260504231423 59 285 0.0 0.0 0.00 0.21 0.21 86 998.0
20260504231317 59 286 0.0 0.0 0.00 0.21 0.21 86 998.0
20260504231213 59 286 0.0 0.0 0.00 0.21 0.21 86 998.0
20260504231107 59 288 0.0 0.0 0.00 0.21 0.21 85 997.9
20260504231003 59 289 0.0 0.0 0.00 0.21 0.21 85 997.7
20260504230859 59 268 0.0 0.0 0.00 0.21 0.21 85 997.5
20260504230751 59 267 0.0 0.0 0.00 0.21 0.21 85 997.5
20260504230645 59 267 0.0 0.0 0.00 0.21 0.21 84 997.5
20260504230542 59 267 0.0 0.0 0.00 0.21 0.21 84 997.4
20260504230439 59 267 0.0 0.0 0.00 0.21 0.21 84 997.4
20260504230115 59 267 0.0 0.0 0.00 0.19 0.20 84 997.4
20260504230008 59 268 0.0 0.0 0.00 0.19 0.20 84 997.4
20260504225901 59 268 0.0 0.0 0.00 0.19 0.20 83 997.7
20260504225536 59 268 0.0 0.0 0.04 0.19 0.20 82 998.0
20260504225429 59 268 0.0 0.0 0.04 0.19 0.20 82 998.0
20260504225327 59 268 0.0 0.0 0.05 0.19 0.20 82 998.1
20260504224740 60 272 3.0 25.0 0.09 0.19 0.20 79 998.0
20260504224414 61 329 6.0 25.0 0.17 0.19 0.20 77 998.0
20260504224306 61 231 7.0 25.0 0.26 0.19 0.20 77 998.1
20260504224159 62 262 9.0 25.0 0.48 0.19 0.20 75 998.3
20260504223837 64 257 10.0 25.0 1.40 0.13 0.17 69 998.5
20260504223732 66 200 9.0 25.0 6.62 0.02 0.13 67 998.5
20260504223624 68 192 8.0 25.0 3.62 0.01 0.04 67 998.4
20260504223518 69 178 7.0 25.0 0.84 0.00 0.02 63 998.4
20260504223411 71 212 6.0 25.0 0.00 0.00 0.00 61 998.1
20260504223308 72 208 5.0 25.0 0.00 0.00 0.00 58 997.9
20260504222943 74 229 2.0 9.0 0.00 0.00 0.00 54 997.2
20260504222836 74 196 2.0 9.0 0.00 0.00 0.00 53 996.9
20260504222730 74 246 2.0 9.0 0.00 0.00 0.00 53 996.9
20260504222625 74 241 2.0 9.0 0.00 0.00 0.00 53 996.9
20260504222520 74 192 2.0 9.0 0.00 0.00 0.00 53 996.8
20260504222413 74 211 2.0 9.0 0.00 0.00 0.00 53 996.8
20260504222306 74 229 2.0 9.0 0.00 0.00 0.00 53 996.7
20260504222203 74 195 2.0 9.0 0.00 0.00 0.00 53 996.7
20260504222059 74 196 1.0 9.0 0.00 0.00 0.00 53 996.7
20260504221953 74 220 1.0 9.0 0.00 0.00 0.00 52 996.7
20260504221845 74 254 1.0 9.0 0.00 0.00 0.00 52 996.7
20260504221741 74 247 2.0 9.0 0.00 0.00 0.00 53 996.7
20260504221638 75 288 2.0 9.0 0.00 0.00 0.00 53 996.7
20260504221534 75 213 1.0 9.0 0.00 0.00 0.00 53 996.7
20260504221427 75 188 1.0 6.0 0.00 0.00 0.00 52 996.8
20260504221323 75 165 1.0 6.0 0.00 0.00 0.00 52 996.8
20260504221218 75 196 1.0 0.0 0.00 0.00 0.00 53 996.8
20260504220848 76 231 2.0 9.0 0.00 0.00 0.00 53 996.8
20260504220745 76 264 2.0 9.0 0.00 0.00 0.00 52 996.7
20260504220638 76 200 3.0 13.0 0.00 0.00 0.00 53 996.9
20260504220536 76 217 3.0 13.0 0.00 0.00 0.00 52 996.8
20260504220434 76 222 3.0 13.0 0.00 0.00 0.00 51 996.9
20260504220330 76 200 3.0 13.0 0.00 0.00 0.00 51 996.9
20260504220224 76 233 3.0 13.0 0.00 0.00 0.00 51 996.9
20260504215903 76 232 4.0 13.0 0.00 0.00 0.00 52 997.0
20260504215757 76 264 3.0 13.0 0.00 0.00 0.00 51 997.1
20260504215650 76 162 3.0 12.0 0.00 0.00 0.00 51 997.2
20260504215546 76 224 3.0 11.0 0.00 0.00 0.00 51 997.2
20260504215441 76 160 3.0 11.0 0.00 0.00 0.00 51 997.2
20260504215337 76 169 3.0 11.0 0.00 0.00 0.00 51 997.1
20260504215233 76 168 4.0 11.0 0.00 0.00 0.00 53 997.2
20260504215129 76 271 4.0 11.0 0.00 0.00 0.00 51 997.2
20260504215026 76 248 4.0 11.0 0.00 0.00 0.00 51 997.2
20260504214656 76 228 3.0 11.0 0.00 0.00 0.00 52 997.3
20260504214549 76 223 3.0 11.0 0.00 0.00 0.00 53 997.4
20260504214447 76 220 3.0 11.0 0.00 0.00 0.00 51 997.4
20260504214344 75 254 3.0 11.0 0.00 0.00 0.00 52 997.4
20260504214237 75 240 3.0 15.0 0.00 0.00 0.00 52 997.4
20260504214131 75 216 3.0 15.0 0.00 0.00 0.00 54 997.5
20260504214026 75 239 3.0 15.0 0.00 0.00 0.00 53 997.5
20260504213701 75 254 4.0 15.0 0.00 0.00 0.00 53 997.5
20260504213116 75 150 5.0 15.0 0.00 0.00 0.00 51 997.6
20260504213010 75 207 5.0 15.0 0.00 0.00 0.00 51 997.6
20260504212904 75 0 4.0 15.0 0.00 0.00 0.00 51 997.5
20260504212758 75 174 4.0 15.0 0.00 0.00 0.00 51 997.5
20260504212653 75 182 4.0 15.0 0.00 0.00 0.00 52 997.5
20260504212551 75 228 4.0 15.0 0.00 0.00 0.00 54 997.6
20260504212443 75 155 5.0 15.0 0.00 0.00 0.00 53 997.6
20260504212336 75 0 4.0 15.0 0.00 0.00 0.00 53 997.5
20260504212229 74 223 4.0 15.0 0.00 0.00 0.00 54 997.6
20260504212125 74 186 5.0 15.0 0.00 0.00 0.00 53 997.5
20260504212021 74 192 5.0 15.0 0.00 0.00 0.00 53 997.6
20260504211919 74 212 6.0 15.0 0.00 0.00 0.00 53 997.6
20260504211557 74 215 5.0 15.0 0.00 0.00 0.00 54 997.6
20260504211453 74 236 5.0 15.0 0.00 0.00 0.00 53 997.6
20260504211349 74 144 4.0 15.0 0.00 0.00 0.00 53 997.7
20260504211244 74 187 4.0 13.0 0.00 0.00 0.00 53 997.7
20260504210924 75 250 4.0 13.0 0.00 0.00 0.00 53 997.7
20260504210820 75 179 5.0 13.0 0.00 0.00 0.00 54 997.8
20260504210718 75 202 5.0 13.0 0.00 0.00 0.00 53 997.8
20260504210130 74 170 4.0 13.0 0.00 0.00 0.00 53 998.0
20260504210027 74 212 4.0 13.0 0.00 0.00 0.00 53 998.1
20260504205920 74 238 4.0 13.0 0.00 0.00 0.00 53 997.9
20260504205813 74 250 3.0 12.0 0.00 0.00 0.00 53 998.1
20260504205708 74 207 3.0 12.0 0.00 0.00 0.00 53 998.0
20260504205606 74 232 3.0 12.0 0.00 0.00 0.00 53 998.1
20260504205502 74 183 3.0 11.0 0.00 0.00 0.00 53 998.1
20260504205358 74 205 3.0 10.0 0.00 0.00 0.00 53 998.1
20260504205252 74 207 2.0 10.0 0.00 0.00 0.00 52 998.2
20260504205148 74 223 2.0 10.0 0.00 0.00 0.00 52 998.2
20260504205043 74 246 2.0 10.0 0.00 0.00 0.00 52 998.2
20260504204938 74 177 3.0 10.0 0.00 0.00 0.00 53 998.2
20260504204836 74 252 3.0 10.0 0.00 0.00 0.00 53 998.2
20260504204730 74 176 3.0 18.0 0.00 0.00 0.00 53 998.2
20260504204148 75 208 6.0 18.0 0.00 0.00 0.00 51 998.3
20260504204043 75 219 5.0 18.0 0.00 0.00 0.00 50 998.4
20260504203938 75 217 5.0 18.0 0.00 0.00 0.00 51 998.4
20260504203832 75 229 5.0 18.0 0.00 0.00 0.00 50 998.4
20260504203729 75 246 6.0 18.0 0.00 0.00 0.00 50 998.3
20260504203624 75 157 5.0 18.0 0.00 0.00 0.00 50 998.3
20260504203519 75 168 5.0 18.0 0.00 0.00 0.00 51 998.2
20260504203415 75 227 5.0 18.0 0.00 0.00 0.00 53 998.3
20260504203313 75 263 5.0 18.0 0.00 0.00 0.00 50 998.4
20260504203210 74 264 6.0 18.0 0.00 0.00 0.00 51 998.3
20260504203103 74 209 5.0 18.0 0.00 0.00 0.00 50 998.3
20260504202959 74 191 5.0 18.0 0.00 0.00 0.00 49 998.4
20260504202852 74 186 5.0 18.0 0.00 0.00 0.00 49 998.4
20260504202744 75 252 5.0 18.0 0.00 0.00 0.00 49 998.3
20260504202640 74 250 5.0 14.0 0.00 0.00 0.00 49 998.4
20260504202533 74 244 4.0 14.0 0.00 0.00 0.00 49 998.5
20260504202427 74 192 4.0 14.0 0.00 0.00 0.00 49 998.5
20260504202320 74 192 4.0 16.0 0.00 0.00 0.00 49 998.5
20260504201955 74 179 5.0 16.0 0.00 0.00 0.00 48 998.5
20260504201851 74 212 5.0 16.0 0.00 0.00 0.00 48 998.5
20260504201747 74 171 5.0 16.0 0.00 0.00 0.00 48 998.6
20260504201639 74 284 5.0 16.0 0.00 0.00 0.00 49 998.6
20260504201534 74 248 6.0 16.0 0.00 0.00 0.00 49 998.6
20260504201431 74 232 6.0 16.0 0.00 0.00 0.00 48 998.6
20260504200849 74 175 6.0 16.0 0.00 0.00 0.00 46 998.6
20260504200742 74 176 6.0 16.0 0.00 0.00 0.00 46 998.7
20260504200636 74 190 6.0 16.0 0.00 0.00 0.00 46 998.7
20260504200532 74 219 6.0 16.0 0.00 0.00 0.00 47 998.7
20260504200429 74 188 6.0 16.0 0.00 0.00 0.00 46 998.7
20260504200322 74 244 6.0 18.0 0.00 0.00 0.00 46 998.7
20260504200220 74 168 6.0 18.0 0.00 0.00 0.00 47 998.7
20260504200118 74 249 6.0 18.0 0.00 0.00 0.00 46 998.7
20260504200012 74 171 6.0 18.0 0.00 0.00 0.00 47 998.7
20260504195905 74 199 6.0 18.0 0.00 0.00 0.00 46 998.7
20260504195757 74 231 6.0 18.0 0.00 0.00 0.00 45 998.7
20260504195652 74 163 6.0 18.0 0.00 0.00 0.00 45 998.7
20260504195547 74 187 6.0 18.0 0.00 0.00 0.00 46 998.7
20260504195001 74 212 7.0 18.0 0.00 0.00 0.00 44 998.6
20260504194854 74 186 7.0 18.0 0.00 0.00 0.00 44 998.6
20260504194747 75 227 6.0 18.0 0.00 0.00 0.00 45 998.8
20260504194639 75 0 6.0 18.0 0.00 0.00 0.00 44 998.8
20260504194533 75 208 6.0 18.0 0.00 0.00 0.00 44 998.7
20260504194429 75 229 6.0 18.0 0.00 0.00 0.00 43 998.7
20260504194102 75 264 6.0 16.0 0.00 0.00 0.00 43 998.8
20260504193959 75 264 6.0 16.0 0.00 0.00 0.00 44 998.9
20260504193855 75 231 6.0 16.0 0.00 0.00 0.00 44 998.7
20260504193753 75 150 6.0 16.0 0.00 0.00 0.00 44 998.8
20260504193651 75 163 5.0 16.0 0.00 0.00 0.00 43 998.8
20260504193547 75 226 5.0 16.0 0.00 0.00 0.00 44 998.8
20260504193440 75 201 6.0 16.0 0.00 0.00 0.00 43 998.9
20260504193114 75 194 6.0 16.0 0.00 0.00 0.00 42 998.9
20260504193010 75 229 5.0 16.0 0.00 0.00 0.00 43 998.9
20260504192907 75 182 5.0 16.0 0.00 0.00 0.00 43 998.9
20260504192801 75 205 6.0 16.0 0.00 0.00 0.00 43 998.7
20260504192653 75 223 6.0 16.0 0.00 0.00 0.00 44 998.9
20260504192547 75 165 7.0 16.0 0.00 0.00 0.00 42 999.0
20260504192444 75 244 6.0 16.0 0.00 0.00 0.00 44 998.9
20260504192338 75 245 6.0 15.0 0.00 0.00 0.00 43 998.9
20260504192231 75 267 6.0 15.0 0.00 0.00 0.00 42 998.9
20260504192126 75 242 6.0 15.0 0.00 0.00 0.00 41 998.9
20260504192020 75 236 6.0 15.0 0.00 0.00 0.00 40 999.0
20260504191912 75 236 6.0 15.0 0.00 0.00 0.00 40 999.0
20260504191805 75 188 5.0 17.0 0.00 0.00 0.00 40 999.0
20260504191703 75 242 6.0 17.0 0.00 0.00 0.00 40 999.0
20260504191601 75 204 6.0 17.0 0.00 0.00 0.00 42 999.0
20260504191234 75 257 6.0 17.0 0.00 0.00 0.00 40 999.0
20260504191129 75 205 6.0 17.0 0.00 0.00 0.00 41 999.0
20260504191025 75 193 7.0 17.0 0.00 0.00 0.00 41 999.0
20260504190921 74 155 7.0 17.0 0.00 0.00 0.00 43 999.1
20260504190818 74 209 7.0 18.0 0.00 0.00 0.00 43 999.0
20260504190716 74 209 7.0 18.0 0.00 0.00 0.00 41 999.1
20260504190612 74 178 7.0 18.0 0.00 0.00 0.00 40 999.0
20260504190251 74 209 6.0 18.0 0.00 0.00 0.00 41 999.2
20260504190144 75 229 6.0 18.0 0.00 0.00 0.00 41 999.2
20260504190037 75 186 6.0 18.0 0.00 0.00 0.00 41 999.1
20260504185935 75 230 6.0 18.0 0.00 0.00 0.00 41 999.1
20260504185828 75 200 6.0 18.0 0.00 0.00 0.00 41 999.2
20260504185725 75 215 6.0 18.0 0.00 0.00 0.00 41 999.1
20260504185619 75 192 6.0 18.0 0.00 0.00 0.00 42 999.1
20260504185514 74 180 6.0 18.0 0.00 0.00 0.00 42 999.3
20260504185150 74 200 5.0 18.0 0.00 0.00 0.00 41 999.3
20260504184609 75 232 3.0 11.0 0.00 0.00 0.00 42 999.3
20260504184505 75 190 3.0 11.0 0.00 0.00 0.00 42 999.4
20260504184401 75 235 4.0 11.0 0.00 0.00 0.00 43 999.3
20260504184035 75 246 4.0 21.0 0.00 0.00 0.00 46 999.3
20260504183713 75 238 4.0 21.0 0.00 0.00 0.00 46 999.4
20260504183347 74 233 5.0 21.0 0.00 0.00 0.00 43 999.4
20260504183241 74 184 6.0 21.0 0.00 0.00 0.00 42 999.5
20260504183138 74 213 5.0 21.0 0.00 0.00 0.00 42 999.4
20260504183036 74 196 5.0 21.0 0.00 0.00 0.00 43 999.6
20260504182933 74 178 5.0 21.0 0.00 0.00 0.00 42 999.5
20260504182825 74 237 5.0 21.0 0.00 0.00 0.00 42 999.6
20260504182721 74 236 6.0 21.0 0.00 0.00 0.00 44 999.5
20260504182617 74 245 6.0 21.0 0.00 0.00 0.00 40 999.6
20260504182513 74 243 6.0 21.0 0.00 0.00 0.00 40 999.6
20260504182409 74 0 6.0 21.0 0.00 0.00 0.00 41 999.6
20260504182307 74 284 6.0 21.0 0.00 0.00 0.00 39 999.6
20260504182204 74 246 5.0 18.0 0.00 0.00 0.00 41 999.7
20260504182101 74 212 6.0 17.0 0.00 0.00 0.00 39 999.6
20260504181733 75 246 5.0 17.0 0.00 0.00 0.00 39 999.7
20260504181626 75 181 5.0 17.0 0.00 0.00 0.00 41 999.8
20260504181520 75 250 5.0 17.0 0.00 0.00 0.00 42 999.7
20260504181415 75 248 5.0 17.0 0.00 0.00 0.00 40 999.8
20260504181050 74 235 5.0 17.0 0.00 0.00 0.00 44 999.8
20260504180944 74 172 5.0 17.0 0.00 0.00 0.00 42 999.7
20260504180838 74 264 4.0 17.0 0.00 0.00 0.00 41 999.7
20260504180736 74 219 4.0 17.0 0.00 0.00 0.00 39 999.7
20260504180630 74 199 4.0 17.0 0.00 0.00 0.00 40 999.8
20260504180527 74 177 4.0 17.0 0.00 0.00 0.00 41 999.8
20260504180425 74 254 4.0 17.0 0.00 0.00 0.00 41 999.8
20260504180320 74 283 4.0 17.0 0.00 0.00 0.00 39 999.7
20260504180216 74 243 4.0 18.0 0.00 0.00 0.00 41 999.8
20260504180109 74 254 4.0 18.0 0.00 0.00 0.00 42 999.8
20260504180006 74 238 3.0 18.0 0.00 0.00 0.00 41 999.8
20260504175903 74 196 4.0 18.0 0.00 0.00 0.00 41 999.8
20260504175758 74 209 4.0 18.0 0.00 0.00 0.00 40 999.8
20260504175438 73 243 4.0 18.0 0.00 0.00 0.00 43 1000.0
20260504175336 73 235 4.0 18.0 0.00 0.00 0.00 42 1000.0
20260504175233 73 153 4.0 18.0 0.00 0.00 0.00 45 999.9
20260504174908 73 236 5.0 18.0 0.00 0.00 0.00 43 1000.0
20260504174803 73 192 5.0 18.0 0.00 0.00 0.00 44 1000.0
20260504174701 73 190 5.0 18.0 0.00 0.00 0.00 43 1000.1
20260504174340 73 241 6.0 18.0 0.00 0.00 0.00 44 1000.1
20260504174234 73 244 6.0 18.0 0.00 0.00 0.00 43 1000.2
20260504174127 73 271 6.0 14.0 0.00 0.00 0.00 43 1000.1
20260504174023 73 0 6.0 14.0 0.00 0.00 0.00 45 1000.2
20260504173917 73 249 6.0 14.0 0.00 0.00 0.00 46 1000.3
20260504173811 73 218 6.0 14.0 0.00 0.00 0.00 47 1000.3
20260504173704 73 245 6.0 14.0 0.00 0.00 0.00 44 1000.3
20260504173559 73 178 6.0 14.0 0.00 0.00 0.00 43 1000.3
20260504173453 73 181 5.0 14.0 0.00 0.00 0.00 43 1000.4
20260504173346 73 236 5.0 14.0 0.00 0.00 0.00 44 1000.4
20260504173019 73 284 4.0 14.0 0.00 0.00 0.00 44 1000.4
20260504172913 73 210 4.0 14.0 0.00 0.00 0.00 47 1000.3
20260504172808 73 215 4.0 14.0 0.00 0.00 0.00 45 1000.4
20260504172441 72 238 5.0 14.0 0.00 0.00 0.00 46 1000.4
20260504172337 72 222 5.0 14.0 0.00 0.00 0.00 46 1000.5
20260504172233 72 238 5.0 14.0 0.00 0.00 0.00 48 1000.4
20260504172126 72 220 6.0 14.0 0.00 0.00 0.00 46 1000.5
20260504171759 72 185 5.0 14.0 0.00 0.00 0.00 47 1000.6
20260504171656 72 164 5.0 14.0 0.00 0.00 0.00 46 1000.6
20260504171549 72 197 5.0 13.0 0.00 0.00 0.00 46 1000.6
20260504171228 72 185 3.0 13.0 0.00 0.00 0.00 45 1000.5
20260504171125 72 0 3.0 13.0 0.00 0.00 0.00 47 1000.5
20260504171020 72 188 4.0 13.0 0.00 0.00 0.00 48 1000.6
20260504170914 72 165 4.0 13.0 0.00 0.00 0.00 47 1000.6
20260504170550 72 190 3.0 13.0 0.00 0.00 0.00 50 1000.8
20260504170445 72 204 4.0 13.0 0.00 0.00 0.00 51 1000.8
20260504170338 72 271 4.0 13.0 0.00 0.00 0.00 49 1000.8
20260504170234 72 236 4.0 13.0 0.00 0.00 0.00 49 1000.9
20260504170126 72 226 4.0 13.0 0.00 0.00 0.00 49 1000.9
20260504160342 70 153 4.0 13.0 0.00 0.00 0.00 51 1001.6
20260504151108 67 221 2.0 12.0 0.00 0.00 0.00 59 1002.1
20260504150526 67 0 4.0 12.0 0.00 0.00 0.00 56 1002.2
20260504150421 67 234 3.0 9.0 0.00 0.00 0.00 59 1002.3
20260504150316 67 180 3.0 9.0 0.00 0.00 0.00 58 1002.1
20260504150213 66 214 3.0 8.0 0.00 0.00 0.00 58 1002.2
20260504150110 66 262 3.0 8.0 0.00 0.00 0.00 57 1002.2
20260504120309 52 182 0.0 8.0 0.00 0.00 0.00 74 1003.4
20260504120207 52 184 0.0 8.0 0.00 0.00 0.00 74 1003.4
20260504120105 52 194 1.0 8.0 0.00 0.00 0.00 74 1003.4
20260504110637 49 170 0.0 0.0 0.00 0.00 0.00 77 1003.3
20260504110530 49 170 0.0 0.0 0.00 0.00 0.00 77 1003.3
20260504110425 49 192 0.0 0.0 0.00 0.00 0.00 77 1003.2
20260504110320 49 192 0.0 0.0 0.00 0.00 0.00 77 1003.3
20260504110217 49 192 0.0 0.0 0.00 0.00 0.00 77 1003.3
20260504110113 49 198 0.0 3.0 0.00 0.00 0.00 77 1003.3
20260504100608 49 208 0.0 0.0 0.00 0.00 0.00 76 1003.0
20260504100506 49 200 0.0 0.0 0.00 0.00 0.00 76 1003.1
20260504100405 49 204 0.0 5.0 0.00 0.00 0.00 76 1003.1
20260504100301 49 219 0.0 5.0 0.00 0.00 0.00 76 1003.1
20260504100159 49 214 0.0 5.0 0.00 0.00 0.00 76 1003.1
20260504082003 50 190 1.0 6.0 0.00 0.00 0.00 75 1003.7
20260504081859 50 209 1.0 6.0 0.00 0.00 0.00 74 1003.7
20260504081754 50 199 1.0 6.0 0.00 0.00 0.00 74 1003.7
20260504081649 50 178 1.0 6.0 0.00 0.00 0.00 74 1003.8
20260504081545 50 200 1.0 6.0 0.00 0.00 0.00 74 1003.8
20260504081438 50 189 1.0 6.0 0.00 0.00 0.00 74 1003.8
20260504081334 50 183 1.0 6.0 0.00 0.00 0.00 74 1003.8
20260504081231 50 248 1.0 6.0 0.00 0.00 0.00 74 1003.8
20260504081129 50 172 2.0 6.0 0.00 0.00 0.00 74 1003.8
20260504081024 50 169 1.0 6.0 0.00 0.00 0.00 74 1003.8
20260504080920 50 213 1.0 6.0 0.00 0.00 0.00 74 1003.9
20260504080814 50 186 1.0 6.0 0.00 0.00 0.00 74 1003.8
20260504080706 50 180 1.0 6.0 0.00 0.00 0.00 74 1003.8
20260504080558 50 187 1.0 6.0 0.00 0.00 0.00 74 1003.8
20260504080232 50 178 0.0 6.0 0.00 0.00 0.00 74 1003.8
20260504080126 50 206 0.0 6.0 0.00 0.00 0.00 74 1003.8
20260504070209 50 173 2.0 9.0 0.00 0.00 0.00 74 1004.6
20260504070104 50 208 2.0 9.0 0.00 0.00 0.00 74 1004.6
20260504060206 50 185 4.0 11.0 0.00 0.00 0.00 73 1005.3
20260504050437 51 184 4.0 10.0 0.00 0.00 0.00 71 1006.1
20260504050331 51 157 4.0 10.0 0.00 0.00 0.00 71 1006.0
20260504050224 51 214 4.0 10.0 0.00 0.00 0.00 71 1006.0
20260504045639 51 198 4.0 13.0 0.00 0.00 0.00 71 1006.0
20260504045531 51 216 4.0 13.0 0.00 0.00 0.00 71 1006.0
20260504045425 51 195 4.0 13.0 0.00 0.00 0.00 71 1006.1
20260504045058 51 176 4.0 13.0 0.00 0.00 0.00 71 1006.0
20260504044951 51 249 4.0 13.0 0.00 0.00 0.00 71 1006.0
20260504044631 51 275 4.0 13.0 0.00 0.00 0.00 71 1006.1
20260504044526 51 202 4.0 13.0 0.00 0.00 0.00 71 1006.1
20260504044423 51 148 4.0 13.0 0.00 0.00 0.00 71 1006.2
20260504044317 51 184 4.0 13.0 0.00 0.00 0.00 71 1006.2
20260504044210 51 194 4.0 13.0 0.00 0.00 0.00 71 1006.1
20260504044107 51 0 4.0 13.0 0.00 0.00 0.00 71 1006.1
20260504044003 51 196 4.0 13.0 0.00 0.00 0.00 71 1006.2
20260504043856 51 196 4.0 13.0 0.00 0.00 0.00 71 1006.2
20260504043528 51 178 3.0 10.0 0.00 0.00 0.00 71 1006.2
20260504043423 51 215 3.0 10.0 0.00 0.00 0.00 71 1006.3
20260504043317 51 144 3.0 10.0 0.00 0.00 0.00 71 1006.3
20260504043213 51 200 3.0 10.0 0.00 0.00 0.00 71 1006.3
20260504043111 51 185 2.0 10.0 0.00 0.00 0.00 71 1006.3
20260504043005 51 233 2.0 10.0 0.00 0.00 0.00 71 1006.3
20260504042858 51 175 3.0 10.0 0.00 0.00 0.00 71 1006.4
20260504042751 51 199 3.0 10.0 0.00 0.00 0.00 71 1006.4
20260504042427 51 187 2.0 9.0 0.00 0.00 0.00 71 1006.4
20260504042102 51 180 3.0 9.0 0.00 0.00 0.00 71 1006.4
20260504042000 51 228 3.0 9.0 0.00 0.00 0.00 71 1006.4
20260504041854 51 159 2.0 9.0 0.00 0.00 0.00 71 1006.4
20260504041747 51 180 3.0 8.0 0.00 0.00 0.00 71 1006.4
20260504041642 51 235 3.0 8.0 0.00 0.00 0.00 71 1006.4
20260504041540 51 159 3.0 8.0 0.00 0.00 0.00 71 1006.4
20260504041436 51 188 3.0 8.0 0.00 0.00 0.00 71 1006.4
20260504041329 51 167 3.0 8.0 0.00 0.00 0.00 71 1006.5
20260504041226 51 172 3.0 8.0 0.00 0.00 0.00 71 1006.4
20260504041121 51 216 3.0 8.0 0.00 0.00 0.00 71 1006.4
20260504041015 51 174 3.0 19.0 0.00 0.00 0.00 71 1006.5
20260504040910 51 192 4.0 19.0 0.00 0.00 0.00 70 1006.5
20260504040806 51 180 4.0 19.0 0.00 0.00 0.00 70 1006.5
20260504040702 51 175 4.0 19.0 0.00 0.00 0.00 70 1006.5
20260504040335 51 175 4.0 19.0 0.00 0.00 0.00 70 1006.6
20260504040230 51 146 4.0 19.0 0.00 0.00 0.00 70 1006.6
20260504040126 51 193 4.0 19.0 0.00 0.00 0.00 70 1006.6
20260504040021 51 188 4.0 19.0 0.00 0.00 0.00 70 1006.6
20260504035914 51 180 4.0 19.0 0.00 0.00 0.00 70 1006.6
20260504035546 51 209 4.0 19.0 0.00 0.00 0.00 70 1006.6
20260504035444 51 233 4.0 19.0 0.00 0.00 0.00 70 1006.6
20260504035340 51 207 4.0 19.0 0.00 0.00 0.00 70 1006.6
20260504035234 51 155 5.0 19.0 0.00 0.00 0.00 70 1006.7
20260504035127 51 218 5.0 19.0 0.00 0.00 0.00 70 1006.6
20260504035021 51 229 4.0 16.0 0.00 0.00 0.00 70 1006.7
20260504034655 51 201 4.0 11.0 0.00 0.00 0.00 70 1006.9
20260504034553 51 185 4.0 11.0 0.00 0.00 0.00 70 1006.8
20260504034447 51 213 4.0 11.0 0.00 0.00 0.00 70 1006.7
20260504033858 51 198 3.0 8.0 0.00 0.00 0.00 70 1006.8
20260504033755 51 207 3.0 8.0 0.00 0.00 0.00 70 1006.7
20260504033653 51 177 3.0 8.0 0.00 0.00 0.00 70 1006.9
20260504033546 51 171 3.0 10.0 0.00 0.00 0.00 70 1006.9
20260504033441 51 178 3.0 10.0 0.00 0.00 0.00 70 1006.9
20260504033120 51 182 3.0 10.0 0.00 0.00 0.00 70 1007.0
20260504033017 51 184 3.0 10.0 0.00 0.00 0.00 70 1007.0
20260504032652 51 195 4.0 10.0 0.00 0.00 0.00 70 1007.0
20260504032548 51 167 4.0 12.0 0.00 0.00 0.00 70 1007.0
20260504032443 51 262 4.0 12.0 0.00 0.00 0.00 70 1007.0
20260504032335 51 158 4.0 12.0 0.00 0.00 0.00 70 1006.9
20260504032228 51 190 4.0 12.0 0.00 0.00 0.00 70 1007.0
20260504032125 51 219 4.0 12.0 0.00 0.00 0.00 70 1007.0
20260504031542 51 180 3.0 12.0 0.00 0.00 0.00 71 1007.1
20260504031437 51 194 3.0 12.0 0.00 0.00 0.00 71 1007.0
20260504031333 51 171 3.0 12.0 0.00 0.00 0.00 71 1007.1
20260504031230 51 141 3.0 12.0 0.00 0.00 0.00 71 1007.1
20260504031127 51 160 2.0 12.0 0.00 0.00 0.00 71 1007.1
20260504031024 51 188 3.0 12.0 0.00 0.00 0.00 71 1007.1
20260504030918 51 190 3.0 12.0 0.00 0.00 0.00 71 1007.1
20260504030111 50 217 3.0 10.0 0.00 0.00 0.00 71 1007.2
20260504030007 50 189 3.0 10.0 0.00 0.00 0.00 71 1007.3
20260504025901 50 182 2.0 10.0 0.00 0.00 0.00 72 1007.3
20260504025758 50 199 2.0 10.0 0.00 0.00 0.00 72 1007.3
20260504025654 50 194 2.0 10.0 0.00 0.00 0.00 72 1007.2
20260504025548 50 204 2.0 10.0 0.00 0.00 0.00 72 1007.2
20260504025442 50 141 2.0 9.0 0.00 0.00 0.00 72 1007.2
20260504025339 50 213 2.0 9.0 0.00 0.00 0.00 72 1007.3
20260504025236 50 183 2.0 9.0 0.00 0.00 0.00 72 1007.3
20260504025128 50 198 2.0 9.0 0.00 0.00 0.00 72 1007.3
20260504025021 50 218 2.0 9.0 0.00 0.00 0.00 72 1007.3
20260504024655 50 248 2.0 15.0 0.00 0.00 0.00 72 1007.4
20260504024548 50 168 3.0 15.0 0.00 0.00 0.00 72 1007.3
20260504024441 50 213 3.0 15.0 0.00 0.00 0.00 72 1007.4
20260504024117 50 213 2.0 15.0 0.00 0.00 0.00 72 1007.4
20260504024011 50 189 3.0 15.0 0.00 0.00 0.00 72 1007.4
20260504023907 50 197 3.0 15.0 0.00 0.00 0.00 72 1007.4
20260504023803 50 173 4.0 15.0 0.00 0.00 0.00 72 1007.4
20260504023438 50 257 3.0 15.0 0.00 0.00 0.00 71 1007.4
20260504022851 50 148 3.0 15.0 0.00 0.00 0.00 71 1007.3
20260504022749 50 225 4.0 9.0 0.00 0.00 0.00 71 1007.3
20260504022644 50 160 4.0 9.0 0.00 0.00 0.00 71 1007.4
20260504022541 50 213 4.0 9.0 0.00 0.00 0.00 71 1007.4
20260504022439 50 202 4.0 9.0 0.00 0.00 0.00 71 1007.4
20260504022116 50 177 3.0 8.0 0.00 0.00 0.00 72 1007.4
20260504022011 50 167 3.0 10.0 0.00 0.00 0.00 72 1007.4
20260504021906 50 174 3.0 10.0 0.00 0.00 0.00 72 1007.4
20260504021801 50 174 3.0 10.0 0.00 0.00 0.00 72 1007.4
20260504021658 50 167 3.0 10.0 0.00 0.00 0.00 72 1007.4
20260504021551 50 174 3.0 10.0 0.00 0.00 0.00 72 1007.4
20260504021448 50 188 3.0 10.0 0.00 0.00 0.00 72 1007.4
20260504021342 51 178 3.0 10.0 0.00 0.00 0.00 72 1007.4
20260504021235 50 188 3.0 10.0 0.00 0.00 0.00 72 1007.4
20260504021131 51 177 3.0 10.0 0.00 0.00 0.00 72 1007.5
20260504021029 51 201 4.0 10.0 0.00 0.00 0.00 72 1007.4
20260504020707 51 173 4.0 10.0 0.00 0.00 0.00 71 1007.4
20260504020600 51 202 4.0 10.0 0.00 0.00 0.00 71 1007.4
20260504020455 51 194 3.0 10.0 0.00 0.00 0.00 71 1007.4
20260504015910 51 196 3.0 8.0 0.00 0.00 0.00 71 1007.4
20260504015546 51 167 2.0 8.0 0.00 0.00 0.00 71 1007.4
20260504015441 51 184 2.0 8.0 0.00 0.00 0.00 71 1007.4
20260504015339 51 168 2.0 8.0 0.00 0.00 0.00 71 1007.4
20260504015014 51 180 1.0 5.0 0.00 0.00 0.00 71 1007.5
20260504014908 51 172 1.0 5.0 0.00 0.00 0.00 71 1007.5
20260504014803 51 207 2.0 5.0 0.00 0.00 0.00 71 1007.5
20260504014658 51 180 2.0 9.0 0.00 0.00 0.00 71 1007.5
20260504014556 51 181 3.0 9.0 0.00 0.00 0.00 71 1007.5
20260504014234 51 196 3.0 9.0 0.00 0.00 0.00 71 1007.5
20260504014131 51 178 3.0 9.0 0.00 0.00 0.00 71 1007.4
20260504013804 51 175 3.0 9.0 0.00 0.00 0.00 71 1007.5
20260504013659 51 182 3.0 11.0 0.00 0.00 0.00 71 1007.4
20260504013119 51 202 3.0 11.0 0.00 0.00 0.00 70 1007.4
20260504013011 51 210 3.0 11.0 0.00 0.00 0.00 70 1007.4
20260504012907 51 167 3.0 11.0 0.00 0.00 0.00 70 1007.5
20260504012320 51 169 3.0 11.0 0.00 0.00 0.00 70 1007.5
20260504012216 51 188 3.0 11.0 0.00 0.00 0.00 70 1007.4
20260504011632 51 188 2.0 9.0 0.00 0.00 0.00 70 1007.6
20260504011528 51 211 2.0 9.0 0.00 0.00 0.00 70 1007.6